| time (UTC) | temp F | wind direction | speed MPH | gust MPH | rain 1hr in | rain 24hr in | rain mn in | humidity % | barometer mb |
| 20260507154556 | 59 | 106 | 1.0 | 6.0 | 0.00 | 0.17 | 0.00 | 71 | 1012.8 |
| 20260507153054 | 61 | 0 | 0.0 | 2.0 | 0.00 | 0.17 | 0.00 | 72 | 1012.5 |
| 20260507151556 | 63 | 0 | 1.0 | 6.0 | 0.00 | 0.17 | 0.00 | 73 | 1013.0 |
| 20260507150058 | 62 | 88 | 0.0 | 0.0 | 0.00 | 0.17 | 0.00 | 78 | 1013.0 |
| 20260507144600 | 60 | 0 | 0.0 | 3.0 | 0.00 | 0.17 | 0.00 | 82 | 1013.3 |
| 20260507143108 | 63 | 0 | 2.0 | 6.0 | 0.00 | 0.17 | 0.00 | 74 | 1013.3 |
| 20260507141611 | 63 | 208 | 1.0 | 6.0 | 0.00 | 0.17 | 0.00 | 74 | 1013.4 |
| 20260507140058 | 62 | 0 | 1.0 | 4.0 | 0.00 | 0.17 | 0.00 | 72 | 1013.5 |
| 20260507134617 | 61 | 0 | 1.0 | 6.0 | 0.00 | 0.18 | 0.00 | 80 | 1013.7 |
| 20260507133106 | 62 | 80 | 1.0 | 5.0 | 0.00 | 0.18 | 0.00 | 80 | 1013.7 |
| 20260507131612 | 62 | 0 | 0.0 | 5.0 | 0.00 | 0.18 | 0.00 | 80 | 1013.9 |
| 20260507130058 | 61 | 168 | 1.0 | 5.0 | 0.00 | 0.18 | 0.00 | 82 | 1014.0 |
| 20260507124558 | 60 | 0 | 0.0 | 7.0 | 0.00 | 0.18 | 0.00 | 86 | 1014.0 |
| 20260507123112 | 60 | 155 | 1.0 | 4.0 | 0.00 | 0.18 | 0.00 | 86 | 1014.2 |
| 20260507121557 | 61 | 184 | 2.0 | 6.0 | 0.00 | 0.18 | 0.00 | 87 | 1014.4 |
| 20260507114600 | 59 | 132 | 1.0 | 4.0 | 0.00 | 0.18 | 0.00 | 92 | 1014.4 |
| 20260507113057 | 59 | 109 | 1.0 | 5.0 | 0.00 | 0.18 | 0.00 | 100 | 1014.5 |
| 20260507111559 | 54 | 234 | 3.0 | 6.0 | 0.00 | 0.18 | 0.00 | 97 | 1014.6 |
| 20260507104601 | 55 | 0 | 1.0 | 7.0 | 0.00 | 0.18 | 0.00 | 95 | 1014.7 |
| 20260507103053 | 56 | 238 | 0.0 | 3.0 | 0.00 | 0.18 | 0.00 | 99 | 1014.7 |
| 20260507101557 | 55 | 104 | 1.0 | 7.0 | 0.00 | 0.18 | 0.00 | 93 | 1014.9 |
| 20260507100101 | 57 | 103 | 1.0 | 5.0 | 0.00 | 0.18 | 0.00 | 99 | 1015.0 |
| 20260507094557 | 57 | 103 | 1.0 | 6.0 | 0.00 | 0.18 | 0.00 | 99 | 1014.7 |
| 20260507093054 | 56 | 88 | 2.0 | 7.0 | 0.00 | 0.18 | 0.00 | 98 | 1015.0 |
| 20260507091557 | 54 | 111 | 2.0 | 6.0 | 0.00 | 0.18 | 0.00 | 100 | 1015.0 |
| 20260507084557 | 53 | 65 | 1.0 | 4.0 | 0.00 | 0.18 | 0.00 | 100 | 1014.9 |
| 20260507083058 | 52 | 0 | 0.0 | 3.0 | 0.00 | 0.18 | 0.00 | 100 | 1014.8 |
| 20260507081556 | 52 | 0 | 0.0 | 4.0 | 0.00 | 0.18 | 0.00 | 100 | 1014.9 |
| 20260507080116 | 51 | 119 | 2.0 | 6.0 | 0.00 | 0.18 | 0.00 | 100 | 1014.6 |
| 20260507074557 | 51 | 165 | 0.0 | 3.0 | 0.00 | 0.18 | 0.00 | 100 | 1014.7 |
| 20260507073057 | 48 | 108 | 2.0 | 6.0 | 0.00 | 0.18 | 0.00 | 100 | 1014.6 |
| 20260507071604 | 46 | 106 | 1.0 | 2.0 | 0.00 | 0.18 | 0.00 | 100 | 1014.6 |
| 20260507070104 | 46 | 103 | 1.0 | 3.0 | 0.00 | 0.18 | 0.00 | 100 | 1014.7 |
| 20260507064634 | 46 | 128 | 1.0 | 3.0 | 0.00 | 0.22 | 0.00 | 100 | 1014.7 |
| 20260507063122 | 45 | 124 | 0.0 | 2.0 | 0.00 | 0.22 | 0.00 | 100 | 1014.6 |
| 20260507061559 | 45 | 125 | 1.0 | 3.0 | 0.00 | 0.22 | 0.00 | 100 | 1014.5 |
| 20260507060115 | 44 | 120 | 1.0 | 2.0 | 0.00 | 0.22 | 0.00 | 100 | 1014.5 |
| 20260507054606 | 43 | 0 | 0.0 | 0.0 | 0.00 | 0.23 | 0.00 | 100 | 1014.5 |
| 20260507053107 | 42 | 0 | 0.0 | 0.0 | 0.00 | 0.23 | 0.00 | 100 | 1014.3 |
| 20260507051606 | 42 | 0 | 0.0 | 0.0 | 0.00 | 0.23 | 0.00 | 100 | 1014.3 |
| 20260507050055 | 43 | 0 | 0.0 | 0.0 | 0.00 | 0.23 | 0.00 | 100 | 1014.2 |
| 20260507044559 | 43 | 0 | 0.0 | 0.0 | 0.00 | 0.23 | 0.00 | 100 | 1014.1 |
| 20260507043100 | 44 | 0 | 0.0 | 0.0 | 0.00 | 0.23 | 0.00 | 100 | 1014.0 |
| 20260507041556 | 44 | 0 | 0.0 | 0.0 | 0.00 | 0.23 | 0.00 | 100 | 1014.0 |
| 20260507040058 | 44 | 0 | 0.0 | 1.0 | 0.00 | 0.23 | 0.00 | 100 | 1014.0 |
| 20260507034555 | 44 | 0 | 0.0 | 3.0 | 0.00 | 0.23 | 0.00 | 100 | 1014.2 |
| 20260507033100 | 44 | 144 | 1.0 | 2.0 | 0.00 | 0.23 | 0.00 | 100 | 1014.2 |
| 20260507031555 | 44 | 0 | 0.0 | 0.0 | 0.00 | 0.23 | 0.00 | 100 | 1014.1 |
| 20260507030057 | 45 | 0 | 0.0 | 1.0 | 0.00 | 0.23 | 0.00 | 100 | 1014.2 |
| 20260507024555 | 45 | 0 | 1.0 | 4.0 | 0.00 | 0.23 | 0.00 | 100 | 1014.3 |
| 20260507023055 | 45 | 205 | 0.0 | 3.0 | 0.00 | 0.23 | 0.00 | 100 | 1014.1 |
| 20260507021556 | 45 | 151 | 0.0 | 0.0 | 0.00 | 0.23 | 0.00 | 100 | 1014.3 |
| 20260507020118 | 45 | 147 | 0.0 | 2.0 | 0.00 | 0.23 | 0.00 | 100 | 1014.2 |
| 20260507014601 | 45 | 147 | 0.0 | 2.0 | 0.00 | 0.23 | 0.00 | 100 | 1014.4 |
| 20260507013102 | 45 | 0 | 0.0 | 2.0 | 0.00 | 0.23 | 0.00 | 100 | 1014.4 |
| 20260507011553 | 45 | 139 | 1.0 | 4.0 | 0.00 | 0.23 | 0.00 | 100 | 1014.4 |
| 20260507010110 | 45 | 0 | 0.0 | 3.0 | 0.00 | 0.23 | 0.00 | 100 | 1014.5 |
| 20260507004557 | 46 | 185 | 0.0 | 7.0 | 0.00 | 0.23 | 0.00 | 100 | 1014.6 |
| 20260507003054 | 46 | 0 | 0.0 | 3.0 | 0.00 | 0.23 | 0.00 | 100 | 1014.8 |
| 20260507001605 | 46 | 5 | 1.0 | 4.0 | 0.00 | 0.23 | 0.00 | 100 | 1014.7 |
| 20260507000059 | 46 | 161 | 1.0 | 4.0 | 0.00 | 0.23 | 0.00 | 100 | 1014.7 |
| 20260506234600 | 46 | 112 | 1.0 | 3.0 | 0.00 | 0.23 | 0.00 | 100 | 1014.7 |
| 20260506233100 | 46 | 184 | 1.0 | 4.0 | 0.00 | 0.23 | 0.00 | 100 | 1014.9 |
| 20260506231608 | 46 | 73 | 1.0 | 4.0 | 0.00 | 0.23 | 0.00 | 100 | 1014.9 |
| 20260506230114 | 46 | 0 | 1.0 | 4.0 | 0.00 | 0.23 | 0.00 | 100 | 1014.9 |
| 20260506224556 | 46 | 158 | 1.0 | 5.0 | 0.00 | 0.23 | 0.00 | 100 | 1014.8 |
| 20260506223055 | 47 | 162 | 1.0 | 9.0 | 0.01 | 0.23 | 0.00 | 100 | 1014.8 |
| 20260506221619 | 47 | 200 | 1.0 | 5.0 | 0.03 | 0.23 | 0.00 | 100 | 1014.7 |
| 20260506220122 | 46 | 146 | 0.0 | 5.0 | 0.07 | 0.23 | 0.00 | 100 | 1014.5 |
| 20260506214557 | 47 | 338 | 1.0 | 7.0 | 0.11 | 0.22 | 0.22 | 100 | 1014.6 |
| 20260506213109 | 47 | 130 | 0.0 | 4.0 | 0.13 | 0.22 | 0.22 | 100 | 1014.7 |
| 20260506211558 | 47 | 0 | 0.0 | 3.0 | 0.11 | 0.20 | 0.20 | 100 | 1014.7 |
| 20260506210104 | 47 | 0 | 0.0 | 3.0 | 0.07 | 0.16 | 0.16 | 100 | 1014.6 |
| 20260506204605 | 47 | 0 | 0.0 | 2.0 | 0.01 | 0.10 | 0.10 | 100 | 1014.4 |
| 20260506203055 | 47 | 0 | 0.0 | 3.0 | 0.00 | 0.08 | 0.08 | 100 | 1014.2 |
| 20260506201555 | 47 | 0 | 0.0 | 2.0 | 0.00 | 0.08 | 0.08 | 100 | 1014.0 |
| 20260506200057 | 47 | 0 | 0.0 | 2.0 | 0.00 | 0.08 | 0.08 | 100 | 1014.0 |
| 20260506194556 | 47 | 125 | 0.0 | 4.0 | 0.00 | 0.08 | 0.08 | 100 | 1014.0 |
| 20260506193054 | 47 | 193 | 0.0 | 3.0 | 0.00 | 0.08 | 0.08 | 100 | 1013.8 |
| 20260506191606 | 47 | 194 | 0.0 | 2.0 | 0.00 | 0.08 | 0.08 | 100 | 1013.6 |
| 20260506190057 | 47 | 0 | 0.0 | 3.0 | 0.00 | 0.08 | 0.08 | 100 | 1013.6 |
| 20260506184615 | 48 | 0 | 0.0 | 2.0 | 0.02 | 0.18 | 0.08 | 100 | 1013.2 |
| 20260506183053 | 48 | 150 | 0.0 | 3.0 | 0.02 | 0.18 | 0.08 | 100 | 1013.3 |
| 20260506181602 | 48 | 0 | 0.0 | 3.0 | 0.02 | 0.18 | 0.08 | 100 | 1013.2 |
| 20260506180058 | 48 | 49 | 0.0 | 3.0 | 0.01 | 0.17 | 0.07 | 100 | 1012.9 |
| 20260506174554 | 49 | 146 | 2.0 | 6.0 | 0.00 | 0.39 | 0.06 | 100 | 1012.7 |
| 20260506173053 | 50 | 0 | 0.0 | 2.0 | 0.00 | 0.39 | 0.06 | 100 | 1012.5 |
| 20260506171606 | 50 | 0 | 0.0 | 2.0 | 0.00 | 0.39 | 0.06 | 100 | 1012.5 |
| 20260506170100 | 50 | 166 | 0.0 | 5.0 | 0.00 | 0.39 | 0.06 | 100 | 1012.3 |
| 20260506164555 | 51 | 144 | 0.0 | 4.0 | 0.00 | 0.48 | 0.06 | 100 | 1012.3 |
| 20260506163056 | 52 | 0 | 0.0 | 5.0 | 0.00 | 0.48 | 0.06 | 100 | 1012.3 |
| 20260506161557 | 52 | 194 | 1.0 | 6.0 | 0.00 | 0.48 | 0.06 | 100 | 1012.3 |
| 20260506160107 | 52 | 0 | 2.0 | 7.0 | 0.00 | 0.48 | 0.06 | 100 | 1012.3 |